Hourly Data Report for October 22, 2013

All times are specified in Local Standard Time (LST). Add 1 hour to adjust for Daylight Saving Time where and when it is observed.

PENTICTON A
BRITISH COLUMBIA

49°27'45.000" N
119°36'08.000" W
344.40 m
1126146
71889
YYF

Download Data

Hourly Data (October 2013)
Hourly Data Report for October 22, 2013
Temp Definition
°C
Dew Point Temp Definition
°C
Rel Hum Definition
%
Wind Dir Definition
10's deg

Wind Spd Definition
km/h
Visibility Definition
km
Stn Press Definition
kPa
Hmdx Definition


Wind Chill Definition


Weather Definition


TIME
00:00 Legend Double Dagger 2.7 2.0 95 34 4 24.1 98.25     LegendNANA
01:00 Legend Double Dagger 2.6 2.0 96 35 7 24.1 98.24     Clear
02:00 Legend Double Dagger 2.2 1.3 94 2 2 24.1 98.23     LegendNANA
03:00 Legend Double Dagger 2.1 1.7 97 3 4 24.1 98.21     LegendNANA
04:00 Legend Double Dagger 0.8 0.2 96 2 5 24.1 98.23     Clear
05:00 Legend Double Dagger 1.5 0.9 96 1 11 24.1 98.26     LegendNANA
06:00 Legend Double Dagger 4.0 3.4 96 3 6 24.1 98.32     LegendNANA
07:00 Legend Double Dagger 5.2 4.3 94 3 6 24.1 98.31     Cloudy
08:00 Legend Double Dagger 6.0 4.8 92 2 4 24.1 98.33     LegendNANA
09:00 Legend Double Dagger 8.1 6.4 89 2 2 24.1 98.32     LegendNANA
10:00 Legend Double Dagger 8.7 6.5 86 7 3 24.1 98.29     Cloudy
11:00 Legend Double Dagger 9.3 6.9 85 27 6 24.1 98.25     LegendNANA
12:00 Legend Double Dagger 10.1 6.8 80 36 6 24.1 98.15     LegendNANA
13:00 Legend Double Dagger 11.6 7.2 74 36 10 24.1 98.10     Mainly Clear
14:00 Legend Double Dagger 11.3 7.3 76 35 17 24.1 98.10     LegendNANA
15:00 Legend Double Dagger 11.1 7.6 79 35 15 24.1 98.10     LegendNANA
16:00 Legend Double Dagger 9.3 6.9 85 35 9 24.1 98.04     Clear
17:00 Legend Double Dagger 8.0 6.8 92 35 10 24.1 98.03     LegendNANA
18:00 Legend Double Dagger 5.3 4.6 95 32 1 24.1 98.02     LegendNANA
19:00 Legend Double Dagger 5.1 4.5 96 36 9 24.1 98.03     Mostly Cloudy
20:00 Legend Double Dagger 8.7 7.5 92 34 8 24.1 98.09     LegendNANA
21:00 Legend Double Dagger 8.6 7.2 91 33 6 24.1 98.12     LegendNANA
22:00 Legend Double Dagger 8.6 7.2 91 32 7 16.1 98.13     Cloudy
23:00 Legend Double Dagger 7.2 5.8 91 4 7 16.1 98.15     LegendNANA

Notes on Data Quality.

Legend

  • E = Estimated
  • M = Missing
  • NA = Not Available
  • ‡ = Partner data that is not subject to review by the National Climate Archives
Date modified: